Regional Weather Roundup
Issued by NWS Charleston, WV

Home | Current Version | Previous Version | Graphics & Text | Print | Product List | Glossary On
Versions: 1 2 3 4 5 6 7 8 9 10 11 12 13 14 15 16 17 18 19 20 21 22 23 24 25 26 27
000
ASUS41 KRLX 162210
RWRRLX
West Virginia Regional Weather Roundup
National Weather Service Charleston WV
500 PM EST SAT DEC 16 2017

Note: "fair" indicates few or no clouds below 12,000 feet with no
significant weather and/or obstructions to visibility.

WVZ003-162300-
Northern Panhandle of West Virginia

CITY           SKY/WX    TMP DP  RH WIND       PRES   REMARKS
WHEELING       CLEAR     41  24  51 SW7       30.04R
$$

WVZ009-162300-
Northwest West Virginia

CITY           SKY/WX    TMP DP  RH WIND       PRES   REMARKS
PARKERSBURG    CLEAR     46  25  43 VRB6      30.10R
$$

WVZ006-162300-
Western West Virginia

CITY           SKY/WX    TMP DP  RH WIND       PRES   REMARKS
HUNTINGTON     CLEAR     49  25  39 SW7       30.11R
$$

WVZ015-162300-
West Central West Virginia

CITY           SKY/WX    TMP DP  RH WIND       PRES   REMARKS
CHARLESTON     CLEAR     47  24  40 SW8       30.11R
$$

WVZ022-031-162300-
North Central West Virginia

CITY           SKY/WX    TMP DP  RH WIND       PRES   REMARKS
CLARKSBURG     CLEAR     44  25  47 SW9       30.07R
MORGANTOWN     CLEAR     44  23  43 VRB6      30.07R
$$

WVZ025-035-042-045-162300-
Southern West Virginia

CITY           SKY/WX    TMP DP  RH WIND       PRES   REMARKS
BECKLEY        CLEAR     40  22  48 SW7       30.11R
LOGAN            N/A     46  25  42 CALM      30.12R
BLUEFIELD      CLEAR     37  20  50 W9        30.12R
LEWISBURG      CLEAR     41  23  49 W5        30.11R
$$

WVZ047-162300-
Northern Mountains of West Virginia

CITY           SKY/WX    TMP DP  RH WIND       PRES   REMARKS
ELKINS         CLEAR     38  24  57 CALM      30.07R
$$

WVZ052-162300-
Eastern Panhandle of West Virginia

CITY           SKY/WX    TMP DP  RH WIND       PRES   REMARKS
MARTINSBURG    CLEAR     44  23  43 W8        30.05R
PETERSBURG     CLEAR     42  23  47 NW3       30.06R
$$




USA.gov is the U.S. government's official web portal to all federal, state and local government web resources and services.